Vorticity
6 6 4 4 3 4 5 3 2 2 3 2 2 3 3 2 2 3 4 4 3 1 3 1 6 7 6 4 4 2 4 11 11 16 21 15 16 15 9 9 6 5 6
4 6 8 2 3 2 4 5 2 3 2 3 2 2 3 3 2 3 3 3 2 2 2 1 2 9 5 3 3 2 3 3 3 9 13 13 13 17 14 14 7 6 5
5 4 8 6 4 4 3 4 3 3 2 3 2 2 2 3 2 3 2 2 3 2 2 1 2 4 9 3 2 2 2 2 2 2 3 4 8 11 11 19 15 7 7
4 5 6 7 7 3 4 7 3 3 3 2 4 2 2 3 2 3 3 2 2 3 2 2 1 2 4 6 3 3 2 2 1 0 2 -1 -2 3 4 9 19 18 11
3 2 4 6 3 9 3 3 7 3 3 3 3 3 2 2 4 3 3 3 2 2 2 2 2 2 3 5 5 3 3 3 2 1 1 1 1 2 2 4 6 8 15
4 5 4 3 7 -0 7 8 5 5 2 3 2 4 1 2 3 2 3 3 2 2 2 1 2 2 2 2 4 5 3 3 3 3 3 1 1 1 2 4 3 4 5
7 2 2 3 5 0 0 10 4 8 4 3 2 4 3 3 2 2 2 3 2 2 2 2 2 2 2 2 2 3 3 4 4 3 2 2 2 4 2 4 4 3 4
2 4 5 3 2 6 0 2 11 3 9 2 2 3 4 2 3 2 2 2 3 3 2 2 1 2 2 2 2 2 3 3 3 3 3 3 2 4 3 2 2 2 1
14 5 0 4 3 6 0 2 20 7 3 7 3 2 4 3 2 3 1 2 2 3 3 2 1 2 2 2 2 2 2 3 2 2 2 2 1 1 1 1 1 0 -0
26 2 2 3 6 3 6 4 -12 3 4 7 6 2 1 5 3 3 2 2 1 3 3 3 2 2 2 2 2 2 2 2 3 2 3 1 2 2 2 1 1 -0 -0
38 13 4 -0 3 5 6 4 -13 7 14 5 3 6 2 3 4 3 3 1 1 2 3 3 2 2 1 2 2 3 3 2 2 2 2 2 2 1 1 0 -1 -1 0
36 21 2 0 0 4 3 1 4 7 9 30 5 6 6 1 4 4 3 3 1 1 2 4 3 2 2 1 2 2 2 3 2 3 2 2 4 2 2 0 -2 -0 2
37 21 8 1 1 2 7 3 7 -23 24 -6 -2 -7 6 4 1 13 4 4 2 1 2 2 4 3 2 2 2 2 3 3 2 3 3 3 2 2 1 1 2 2 2
33 27 13 5 1 4 4 5 2 6 -10 9 35 -5 1 7 -0 -1 5 4 3 1 2 2 3 4 2 2 2 2 2 2 3 2 2 3 3 3 3 2 3 3 3
31 24 19 10 3 5 3 8 2 9 2 -3 31 -13 -3 11 6 0 6 4 5 2 0 3 2 3 4 3 2 2 2 2 2 2 3 2 2 2 3 3 4 3 3
22 31 18 14 7 4 6 1 1 15 19 2 27 0 25 5 7 14 4 7 6 5 2 0 4 2 3 3 3 2 2 2 2 3 3 3 3 3 3 3 3 3 4
25 34 27 16 16 6 10 3 10 -44 -22 36 2 19 -22 13 10 0 13 4 7 6 3 0 0 4 3 3 3 3 3 2 2 2 2 2 3 3 3 3 3 4 4
28 22 23 21 0 9 -2 6 -1 -20 2 -23 13 -23 18 30 6 1 7 3 7 6 5 4 1 0 3 2 3 3 3 3 3 3 2 2 2 2 3 3 3 3 4
35 26 22 27 5 8 -1 10 1 2 -14 15 -14 14 -8 -11 -20 20 5 12 3 5 5 5 3 2 1 3 2 3 3 3 2 2 2 2 2 2 2 2 2 2 3
49 35 22 34 17 10 8 13 9 2 -36 33 -13 12 -31 17 29 29 4 9 3 2 6 5 4 3 1 2 3 3 2 3 3 3 3 3 2 2 2 2 2 3 3
42 51 32 21 35 22 18 1 4 -5 13 -33 -23 25 -37 8 -13 4 -13 -1 9 4 5 5 6 4 3 3 2 2 3 2 2 3 3 3 3 3 2 2 2 3 4
24 56 47 15 28 18 33 -3 16 16 13 -4 10 -3 11 28 -7 16 16 9 11 3 4 3 5 6 5 3 2 2 2 3 4 4 4 3 4 3 3 3 3 4 4
19 26 61 37 10 38 20 9 -14 26 11 10 -9 -33 9 -7 1 10 -3 1 -19 18 5 0 1 6 8 4 4 3 4 2 2 3 5 4 3 3 3 3 3 3 4
14 22 33 56 23 18 37 0 5 -4 13 -1 -10 16 -6 -3 14 -41 49 -8 8 4 5 5 5 2 5 7 6 6 3 4 4 0 0 1 1 1 0 0 1 4 4
10 7 23 47 50 23 28 6 16 5 7 17 7 5 9 -3 -0 -7 34 37 -6 -26 -19 6 6 3 1 2 8 6 5 4 4 6 6 4 3 3 2 2 2 4 5
10 12 5 23 59 45 21 31 15 1 2 6 14 -14 10 4 -2 -0 -24 -16 5 9 36 12 10 3 7 6 3 5 7 5 3 2 5 4 3 4 4 4 4 4 5
Height
5855 5858 5859 5859 5862 5865 5868 5870 5869 5869 5874 5878 5881 5884 5885 5885 5886 5887 5888 5889 5887 5888 5888 5887 5888 5887 5884 5881 5879 5880 5880 5880 5878 5878 5877 5875 5875 5875 5874 5875 5876 5877 5878
5852 5853 5855 5856 5859 5863 5864 5868 5868 5869 5869 5874 5878 5881 5884 5885 5885 5886 5887 5889 5889 5889 5889 5888 5889 5890 5888 5884 5882 5883 5883 5883 5882 5881 5880 5878 5878 5877 5876 5876 5877 5879 5881
5845 5848 5851 5852 5854 5856 5860 5863 5864 5866 5867 5869 5875 5879 5882 5884 5884 5885 5886 5889 5890 5890 5889 5889 5889 5891 5891 5888 5886 5886 5885 5885 5884 5884 5884 5881 5881 5881 5880 5880 5879 5880 5883
5838 5840 5844 5847 5849 5852 5856 5858 5861 5862 5865 5866 5870 5875 5879 5881 5883 5884 5885 5887 5889 5891 5891 5889 5891 5891 5892 5892 5890 5889 5888 5888 5887 5887 5886 5885 5884 5884 5884 5885 5884 5883 5884
5829 5831 5834 5838 5842 5846 5849 5854 5857 5859 5861 5864 5866 5871 5875 5878 5881 5883 5884 5885 5888 5890 5892 5891 5891 5892 5892 5893 5892 5891 5891 5891 5890 5890 5889 5889 5889 5887 5888 5887 5888 5888 5888
5818 5823 5826 5828 5833 5838 5842 5845 5850 5854 5856 5860 5863 5867 5870 5875 5878 5881 5882 5883 5886 5888 5891 5892 5892 5892 5893 5893 5894 5893 5893 5893 5893 5893 5892 5892 5891 5891 5890 5891 5890 5892 5892
5803 5810 5816 5819 5823 5829 5834 5838 5843 5850 5854 5855 5858 5862 5866 5870 5875 5877 5879 5881 5883 5886 5889 5891 5892 5893 5893 5893 5894 5895 5895 5895 5894 5895 5895 5895 5895 5895 5894 5894 5894 5893 5894
5789 5795 5802 5808 5814 5820 5825 5830 5836 5843 5849 5851 5853 5857 5860 5865 5870 5873 5875 5878 5880 5883 5887 5889 5890 5893 5894 5894 5895 5895 5897 5898 5897 5896 5897 5897 5898 5897 5897 5897 5898 5899 5898
5772 5779 5786 5795 5802 5809 5815 5822 5828 5834 5839 5845 5850 5852 5855 5858 5863 5868 5871 5873 5876 5880 5883 5886 5888 5890 5892 5894 5895 5895 5896 5898 5899 5899 5898 5898 5898 5898 5899 5899 5900 5900 5900
5753 5762 5769 5779 5788 5796 5804 5812 5820 5826 5832 5835 5843 5846 5851 5853 5857 5861 5867 5869 5871 5875 5879 5883 5886 5888 5890 5893 5894 5894 5896 5897 5898 5900 5899 5900 5900 5900 5900 5900 5901 5901 5901
5730 5742 5751 5762 5772 5782 5790 5800 5810 5810 5821 5826 5832 5839 5843 5848 5852 5856 5861 5865 5867 5869 5874 5878 5881 5885 5888 5890 5892 5893 5895 5897 5898 5899 5899 5900 5901 5902 5902 5902 5902 5903 5903
5708 5721 5732 5744 5755 5767 5777 5787 5796 5804 5812 5814 5822 5831 5834 5840 5846 5850 5856 5859 5862 5865 5869 5874 5877 5880 5884 5888 5890 5892 5893 5895 5897 5898 5900 5901 5902 5902 5903 5903 5903 5904 5904
5687 5701 5712 5724 5735 5749 5762 5771 5782 5788 5798 5798 5809 5817 5822 5831 5838 5843 5849 5853 5858 5863 5866 5869 5873 5876 5880 5884 5887 5890 5892 5894 5895 5897 5898 5899 5901 5902 5903 5903 5903 5904 5903
5668 5679 5693 5705 5719 5731 5746 5757 5769 5778 5784 5788 5798 5806 5814 5822 5828 5834 5841 5848 5854 5859 5862 5864 5866 5872 5876 5879 5883 5887 5889 5891 5893 5895 5896 5898 5899 5900 5901 5902 5903 5903 5903
5655 5663 5672 5686 5700 5711 5727 5739 5753 5764 5774 5785 5784 5791 5804 5812 5818 5825 5830 5838 5847 5851 5855 5859 5863 5867 5871 5875 5878 5882 5886 5889 5891 5892 5894 5896 5897 5898 5900 5901 5902 5902 5902
5643 5651 5658 5669 5683 5694 5707 5724 5738 5751 5760 5770 5774 5782 5793 5800 5809 5814 5820 5828 5837 5843 5847 5851 5857 5861 5864 5869 5873 5877 5881 5885 5888 5891 5892 5893 5895 5896 5897 5899 5900 5900 5900
5634 5640 5648 5656 5668 5681 5690 5705 5721 5732 5747 5757 5762 5769 5779 5789 5797 5804 5811 5818 5827 5834 5838 5842 5849 5855 5860 5864 5868 5872 5876 5880 5883 5887 5889 5890 5891 5893 5894 5896 5897 5897 5898
5625 5631 5636 5644 5654 5667 5679 5689 5704 5718 5731 5741 5749 5757 5766 5776 5784 5790 5797 5805 5816 5821 5829 5833 5840 5847 5852 5858 5862 5866 5871 5874 5878 5881 5885 5887 5889 5889 5890 5892 5893 5893 5895
5617 5622 5629 5636 5644 5654 5665 5676 5687 5700 5715 5726 5736 5747 5755 5763 5771 5779 5790 5801 5806 5811 5818 5824 5831 5837 5844 5850 5855 5860 5866 5870 5873 5876 5880 5883 5885 5886 5887 5888 5889 5890 5891
5610 5612 5619 5627 5638 5645 5653 5662 5675 5686 5698 5709 5722 5734 5740 5746 5756 5768 5779 5787 5796 5802 5808 5814 5822 5829 5834 5841 5848 5853 5859 5864 5868 5872 5875 5878 5880 5881 5883 5884 5885 5886 5887
5603 5602 5607 5616 5627 5637 5645 5652 5661 5672 5684 5695 5705 5715 5727 5741 5742 5749 5763 5773 5782 5789 5797 5806 5813 5819 5826 5834 5840 5847 5852 5858 5863 5866 5870 5873 5875 5876 5878 5879 5880 5881 5882
5599 5595 5598 5604 5611 5625 5637 5638 5649 5659 5670 5679 5690 5700 5714 5724 5730 5741 5750 5759 5771 5778 5785 5791 5801 5809 5816 5823 5831 5838 5844 5852 5858 5863 5865 5867 5869 5871 5872 5874 5874 5876 5878
5597 5591 5590 5594 5599 5608 5622 5632 5636 5646 5657 5666 5676 5689 5701 5711 5721 5726 5733 5744 5754 5765 5773 5780 5791 5800 5808 5815 5822 5830 5838 5847 5852 5855 5858 5860 5862 5863 5865 5866 5868 5870 5872
5593 5588 5584 5585 5590 5596 5605 5617 5628 5634 5644 5652 5662 5671 5684 5695 5708 5717 5724 5734 5746 5750 5762 5770 5780 5789 5796 5803 5812 5819 5829 5838 5840 5845 5849 5852 5855 5857 5857 5858 5861 5863 5866
5587 5582 5579 5576 5579 5585 5592 5600 5611 5619 5629 5638 5648 5658 5668 5680 5694 5704 5715 5723 5728 5738 5746 5758 5767 5775 5784 5792 5803 5810 5818 5826 5832 5838 5843 5846 5847 5848 5848 5851 5853 5857 5860
5582 5576 5571 5568 5566 5569 5577 5587 5595 5605 5614 5625 5633 5644 5655 5665 5679 5692 5700 5709 5717 5724 5736 5746 5757 5764 5773 5781 5791 5797 5805 5814 5822 5828 5832 5833 5836 5837 5840 5843 5847 5850 5852